Yellowstone, WY

8:23 AM MDT on March 30, 2017 (GMT -0600)
Yellowstone

Weather History for KP60 - March, 2014

Change the Weather History Date:

Friday, March 7, 2014

  Actual Average Record
Temperature  
Mean Temperature 23 °F 20 °F  
Max Temperature 34 °F 34 °F 44 °F (2007)
Min Temperature 11 °F 7 °F -10 °F (2009)
Degree Days  
Heating Degree Days 42 45  
Month to date heating degree days 299 320  
Since 1 July heating degree days 8352 8257  
Cooling Degree Days 0 0  
Month to date cooling degree days 0 0  
Year to date cooling degree days 0 0  
Moisture  
Dew Point 20 °F    
Average Humidity 82    
Maximum Humidity 100    
Minimum Humidity 63    
Precipitation  
Precipitation 0.02 in 0.03 in 0.25 in (2002)
Month to date precipitation 1.44 0.20  
Year to date precipitation 6.52 3.72  
Sea Level Pressure  
Sea Level Pressure 30.15 in    
Wind  
Wind Speed 3 mph (WNW)    
Max Wind Speed 12 mph    
Max Gust Speed 19 mph    
T = Trace of Precipitation, MM = Missing Value Source: NWS Daily Summary

Daily Weather History Graph

Daily Weather History Graph

Search for Another Location

Airport or City:

Trip Planner

Search our weather history database for the weather conditions in past years. The results will help you decide how hot, cold, wet, or windy it might be!

Date:

Astronomy

Mar. 07, 2014 Rise Set
Actual Time 6:48 AM MST 6:17 PM MST
Civil Twilight 6:19 AM MST 6:46 PM MST
Nautical Twilight 5:45 AM MST 7:20 PM MST
Astronomical Twilight 5:11 AM MST 7:54 PM MST
Moon 10:29 AM MST (3/7) 12:39 AM MST (3/7)
Length of Visible Light 12h 27m
Length of Day
11h 29m
Waxing Crescent, 42% of the Moon is Illuminated
Mar 7
Waxing Crescent
Mar 8
First Quarter
Mar 16
Full
Mar 23
Last Quarter
Mar 30
New

Hourly Weather History & Observations

Time (MST) Temp. Windchill Dew Point Humidity Pressure Visibility Wind Dir Wind Speed Gust Speed Precip Events Conditions
12:56 AM 19.0 °F 12.3 °F 17.1 °F 92% 29.99 in - West 4.6 mph - N/A   Unknown
1:56 AM 19.9 °F - 17.1 °F 89% 29.99 in - Calm Calm - N/A   Unknown
2:56 AM 21.0 °F - 19.9 °F 96% 29.99 in - Calm Calm - N/A   Unknown
3:56 AM 21.9 °F - 19.9 °F 92% 30.01 in - Calm Calm - N/A   Unknown
4:56 AM 21.0 °F - 19.0 °F 92% 30.01 in - Calm Calm - N/A   Unknown
5:56 AM 19.0 °F - 16.0 °F 88% 30.03 in - Calm Calm - N/A   Unknown
6:56 AM 18.0 °F - 17.1 °F 96% 30.08 in - Calm Calm - N/A   Unknown
7:56 AM 21.0 °F - 19.9 °F 96% 30.09 in - Calm Calm - N/A   Unknown
8:56 AM 23.0 °F - 23.0 °F 100% 30.09 in - Calm Calm - N/A   Unknown
9:56 AM 28.0 °F 19.3 °F 21.9 °F 78% 30.10 in - WNW 9.2 mph - N/A   Unknown
10:56 AM 30.9 °F - 24.1 °F 76% 30.10 in - Calm Calm - N/A   Unknown
11:56 AM 30.0 °F 23.2 °F 21.0 °F 69% 30.13 in - Variable 6.9 mph - N/A   Unknown
12:56 PM 30.9 °F 24.3 °F 19.9 °F 64% 30.14 in - West 6.9 mph - N/A   Unknown
1:56 PM 32.0 °F 26.4 °F 23.0 °F 69% 30.13 in - WNW 5.8 mph - N/A   Unknown
2:56 PM 30.9 °F 25.2 °F 23.0 °F 72% 30.15 in - WNW 5.8 mph - N/A   Unknown
3:56 PM 30.0 °F 24.1 °F 24.1 °F 79% 30.17 in - Variable 5.8 mph - 0.02 in   Unknown
4:56 PM 28.9 °F 21.9 °F 23.0 °F 78% 30.20 in - Variable 6.9 mph - N/A   Unknown
5:56 PM 28.0 °F 22.8 °F 21.9 °F 78% 30.24 in - WNW 4.6 mph - N/A   Unknown
6:56 PM 26.1 °F - 24.1 °F 92% 30.28 in - Calm Calm - N/A   Unknown
7:56 PM 27.0 °F 23.0 °F 23.0 °F 85% 30.28 in - West 3.5 mph - N/A   Unknown
8:56 PM 23.0 °F - 21.9 °F 96% 30.30 in - Calm Calm - N/A   Unknown
9:56 PM 19.9 °F 12.1 °F 17.1 °F 89% 30.31 in - WNW 5.8 mph - N/A   Unknown
10:56 PM 15.1 °F - 12.0 °F 88% 30.33 in - Calm Calm - N/A   Unknown
11:56 PM 12.0 °F - 8.1 °F 84% 30.37 in - Calm Calm - N/A   Unknown